Terminal Aerodrome Forecast
Issued by NWS Charleston, WV

Current Version | Previous Version | Graphics & Text | Print | Product List | Glossary On
Versions: 1 2 3 4 5 6 7 8 9 10 11 12 13 14 15 16 17
000
FTUS41 KRLX 221500 AAA
TAFEKN
TAF AMD
KEKN 221525Z 2215/2312 00000KT P6SM BKN050
     FM221800 13008G13KT P6SM VCSH OVC050
     FM222100 00000KT P6SM BKN045=

USA.gov is the U.S. government's official web portal to all federal, state and local government web resources and services.